Home   Weather   Norden   Past weeks

Flag for Germany Past Weather in Norden, Lower Saxony, Germany — Yesterday and Last 2 Weeks

Now
34 °F

Passing clouds.


Feels Like: 31 °F
Forecast: 27 / 35 °F
Wind: 3 mph from North

Location: Wittmundhaven

Current Time: Jan 16, 2017 at 4:12:59 pm

Latest Report: Jan 16, 2017 at 3:20 pm


Visibility: N/A

Pressure: 30.39 "Hg

Humidity: 81%

Dew Point: 28 °F

Location of NordenLocation

Past Weather in Norden — Graph

°F

Norden Temperature Yesterday

Maximum temperature yesterday: 39 °F (at 12:53 pm)
Minimum temperature yesterday: 28 °F (at 11:20 pm)
Average temperature yesterday: 34 °F

High & Low Weather Summary for the Past Weeks

 TemperatureHumidityPressure
High46 °F (Jan 3, 10:49 pm)100% (Jan 1, 3:20 pm)30.74 "Hg (Jan 1, 3:20 pm)
Low18 °F (Jan 6, 4:20 am)59% (Jan 5, 3:20 pm)29.12 "Hg (Jan 13, 2:20 am)
Average36 °F87%29.95 "Hg
* Reported Jan 1 2:20 pm — Jan 16 2:20 pm, Norden, Weather by CustomWeather, © 2017

Note: Actual official high and low records may vary slightly from our data, if they occured in-between our weather recording intervals... More about our weather records

Advertising

Norden Weather History for the Previous 24 Hours

Scroll right to see more
 ConditionsComfort  
Time TempWeatherWind HumidityBarometerVisibility
2:20 pm
Mon, Jan 16
34 °FPassing clouds.3 mph81%30.39 "HgN/A
1:20 pm34 °FChilly.3 mph81%30.39 "HgN/A
12:20 pm34 °FChilly.2 mph81%30.36 "HgN/A
11:20 am30 °FPassing clouds.No wind93%30.36 "HgN/A
10:20 am25 °FPassing clouds.1 mph93%30.36 "HgN/A
9:20 am21 °FPassing clouds.1 mph93%30.33 "HgN/A
8:20 am21 °FFog.No wind93%30.33 "HgN/A
7:20 am21 °FFog.1 mph100%30.30 "HgN/A
6:20 am21 °FFog.1 mph93%30.27 "HgN/A
5:20 am21 °FFog.1 mph100%30.27 "HgN/A
5:02 am23 °FFog.1 mph93%30.27 "HgN/A
4:20 am23 °FCold.1 mph93%30.24 "Hg0 mi
3:20 am23 °FCold.1 mph100%30.24 "Hg2 mi
2:20 am23 °FCold.1 mph100%30.24 "Hg0 mi
1:20 am25 °FCold.2 mph100%30.21 "Hg1 mi
12:20 am27 °FChilly.1 mph100%30.21 "Hg0 mi
11:20 pm
Sun, Jan 15
28 °FChilly.5 mph93%30.21 "Hg0 mi
10:20 pm30 °FChilly.1 mph100%30.18 "Hg3 mi
9:20 pm30 °FChilly.3 mph100%30.18 "Hg3 mi
8:20 pm30 °FChilly.5 mph100%30.15 "Hg4 mi
7:20 pm30 °FChilly.6 mph100%30.15 "Hg4 mi
6:20 pm32 °FChilly.7 mph100%30.12 "Hg4 mi
5:20 pm32 °FChilly.2 mph100%30.12 "Hg5 mi
4:20 pm34 °FChilly.7 mph93%30.09 "Hg4 mi
Weather by CustomWeather, © 2017

See weather overviewHow to use our weather pages